STARLINK-2061, 48312

Orbit data source: Space-Track

STARLINK-2061, 48312 is a payload satellite owned by SpaceX/Seattle (US) in LEO that was launched on Thu, 29 Apr 2021 UTC via an FALCON 9 launch vehicle from the Air Force Eastern Test Range (AFETR). Payloads include a variety of satellites, spacecraft, and rockets equipped with specific instruments for various scientific and technological missions. These include communications satellites like Starlink; space stations such as the ISS; scientific satellites like the Hubble; Earth observation satellites from companies like Planet Labs, Umbra, and HawkEye 360; GPS; miniature CubeSats for education and research; and military/defense satellites.

Loading next visibility...
STARLINK-2061 details
Identifier
48312, 2021-036AN
Orbit
LEO
Last TLE update10 hours ago
Origin
Flag of USSpaceX/Seattle (US)
ManufacturerSpaceX/Seattle
MissionOperational Commercial Communications
Bus & MotorSTARLINK, Unknown motor
Mass260 kg wet, ~248 kg dry
Launch date (UTC)
2021-04-29 (4 years ago)
Launch vehicle
FALCON 9
Launch site
Air Force Eastern Test Range (AFETR)
Object type
Payload
Rocket body
Debris
Shape & HBRBox + 1 Pan, 8.86 m
Radar Cross Section13.562 m², Large (>1 m²)

Expand to show TLE details & history

TLE from 10 hours ago
0 STARLINK-2061
1 48312U 21036AN  25036.06905180  .00001591  00000-0  12568-3 0  9996
2 48312  53.0556  76.6047 0001466  87.0108 273.1048 15.06400788208885
Epoch: 2025-02-05T01:39Z
Definitive object data (Epoch: 2025-02-05T01:39:26.075Z)
Latitude-0.00008°
Longitude-83.71929°
Altitude548.034 km
Speed7.589 km/s
True Right ascension05h 06m 25s
True Declination0° 00' 00"
Sunlit
Object was in full shadow at TLE epoch
Visualization TLE readout
Latitude6.31689°
Longitude89.60185°
Altitude547.374 km
Speed7.59 km/s
Apparent Right ascension19h 40m 11s
Apparent Declination-36° 57' 03"
Sunlit
Object is in daylight
Visualization observer readout
Local Sidereal Time14:01:22
Azimuth122.574° SE
Elevation-19.217°
Doppler factor1
Orbital elements
Apogee altitude548.495 km
Perigee altitude546.464 km
Semi-major axis6,925.617 km
Eccentricity0.0001466
Inclination53.0556°
RAAN76.6047°
Arg. of periapsis87.0108°
True anomaly273.08803°
Mean anomaly273.1048°
Eccentric anomaly273.09641°
Mean motion3.76578 °/min
BSTAR0.00012568
Orbital period95.6 mins
Loading maneuver chart data...
Loading historical data...
Loading historical data...
Loading historical data...
Loading historical data...
Loading historical data...
Loading historical data...
Loading historical data...

STARLINK-2061 Visibility forecast

Observer location: undefined°, undefined

Span
Click to sort rows by Start time (UTC) header in descending order
Start Az.
Max El. time (UTC)
Max El. Az.
Max El.
End time (UTC)
End Az.
6 mins2025-02-05 13:21:17.423Z280.625° WNW2025-02-05 13:24:17.423Z226.333° WSW22.266°2025-02-05 13:27:17.423Z177.225° S
6 mins2025-02-06 04:54:17.423Z213.258° SW2025-02-06 04:57:17.423Z113.533° SE41.122°2025-02-06 05:00:17.423Z57.905° ENE
4 mins2025-02-06 06:35:17.423Z300.708° NW2025-02-06 06:37:17.423Z346.551° N22.781°2025-02-06 06:39:17.423Z22.549° NE
6 mins2025-02-06 11:36:17.423Z322.266° NNW2025-02-06 11:38:17.423Z15.466° NNE41.186°2025-02-06 11:42:17.423Z118.146° SE
|